Location: Burgberg
(50.1428°N, 11.0671°E)
Time: 16:36:53
(UTC+00:00)

Lacrosse 5 rocket - Pass Details

Date: 26 January 2020
Orbit: 465 x 632 km, 57.0° (Epoch: 25 February)

Event Time Altitude Azimuth Distance (km) Brightness Sun altitude
Exits shadow 06:03:36 11° 304° (NW) 1,958 3.5 -8.9°
Maximum altitude 06:08:04 75° 30° (NNE) 632 1.6 -8.2°
Drops below altitude 10° 06:12:26 10° 116° (ESE) 1,911 5.8 -7.5°
Sets 06:14:39 0° 119° (ESE) 2,782 7.3 -7.2°
